GW5678 Weather Reports


time (UTC)temp
C
wind
direction
speed
KPH
gust
KPH
rain 1hr
cm
rain 24hr
cm
rain mn
cm
humidity
%
barometer
mb
20260508033745 6 58 3.2 6.4 0.00 0.03 0.03 75 1012.6
20260508033243 6 63 6.4 8.0 0.00 0.03 0.03 73 1012.7
20260508032741 6 131 6.4 6.4 0.00 0.03 0.03 73 1012.7
20260508032238 6 209 0.0 3.2 0.00 0.03 0.03 73 1012.5
20260508031734 6 61 4.8 4.8 0.00 0.03 0.03 72 1012.5
20260508031231 7 49 4.8 4.8 0.00 0.03 0.03 72 1012.5
20260508030727 7 74 3.2 6.4 0.00 0.03 0.03 69 1012.4
20260508030225 7 106 3.2 4.8 0.00 0.03 0.03 68 1012.3
20260508025721 7 59 6.4 8.0 0.00 0.03 0.03 68 1012.3
20260508025218 7 139 4.8 6.4 0.00 0.03 0.03 67 1012.3
20260508024714 8 127 4.8 11.3 0.00 0.03 0.03 66 1012.3
20260508024211 8 34 4.8 6.4 0.00 0.03 0.03 64 1012.3
20260508023707 8 57 3.2 4.8 0.00 0.03 0.03 62 1012.4
20260508023205 8 55 6.4 8.0 0.00 0.03 0.03 61 1012.3
20260508022701 9 101 6.4 6.4 0.00 0.03 0.03 60 1012.0
20260508022158 10 108 3.2 4.8 0.00 0.03 0.03 59 1012.1
20260508021654 10 114 0.0 4.8 0.00 0.03 0.03 56 1012.2
20260508021150 10 29 4.8 4.8 0.00 0.03 0.03 55 1011.9
20260508020648 10 44 1.6 4.8 0.00 0.03 0.03 55 1012.1
20260508020145 10 68 3.2 4.8 0.00 0.03 0.03 54 1012.0
20260508015642 10 29 0.0 4.8 0.00 0.03 0.03 54 1011.9
20260508015139 10 170 4.8 11.3 0.00 0.03 0.03 54 1011.7
20260508014636 10 96 0.0 4.8 0.00 0.03 0.03 59 1011.8
20260508014132 10 28 4.8 6.4 0.00 0.03 0.03 56 1011.5
20260508013628 10 29 4.8 6.4 0.00 0.03 0.03 55 1011.6
20260508013125 10 304 0.0 3.2 0.00 0.03 0.03 56 1011.6
20260508012623 11 38 1.6 3.2 0.00 0.03 0.03 53 1011.4
20260508012120 11 69 3.2 6.4 0.00 0.03 0.03 51 1011.2
20260508011618 11 95 1.6 3.2 0.00 0.03 0.03 50 1011.1
20260508011115 12 96 6.4 8.0 0.00 0.03 0.03 48 1011.0
20260508010611 12 103 8.0 9.7 0.00 0.03 0.03 47 1011.0
20260508010110 12 122 9.7 9.7 0.00 0.03 0.03 48 1010.9
20260508005606 12 140 9.7 9.7 0.00 0.03 0.03 49 1010.9
20260508005102 12 60 4.8 6.4 0.00 0.03 0.03 49 1010.7
20260508004558 12 147 3.2 8.0 0.00 0.03 0.03 49 1010.7
20260508004055 13 84 3.2 4.8 0.00 0.03 0.03 47 1010.6
20260508003552 13 125 8.0 8.0 0.00 0.03 0.03 45 1010.6
20260508003049 13 124 6.4 16.1 0.00 0.03 0.03 44 1010.6
20260508002545 13 127 8.0 14.5 0.00 0.03 0.03 43 1010.4
20260508002043 14 123 12.9 16.1 0.00 0.03 0.03 42 1010.3
20260508001538 14 111 14.5 19.3 0.00 0.03 0.03 42 1010.4
20260508001035 15 110 14.5 14.5 0.00 0.03 0.03 43 1010.2
20260508000531 15 120 9.7 17.7 0.00 0.03 0.03 41 1010.1
20260508000029 15 127 12.9 19.3 0.00 0.03 0.03 41 1010.1
20260507235525 15 146 17.7 19.3 0.00 0.03 0.03 42 1009.8
20260507235022 15 135 16.1 25.7 0.00 0.03 0.03 39 1010.0
20260507234519 16 143 12.9 19.3 0.00 0.03 0.03 40 1009.8
20260507234015 16 129 8.0 17.7 0.00 0.03 0.03 40 1009.6
20260507233512 16 149 14.5 27.4 0.00 0.03 0.03 38 1009.6
20260507233011 16 133 14.5 30.6 0.00 0.03 0.03 40 1009.7
20260507232506 16 135 16.1 27.4 0.00 0.03 0.03 42 1009.6
20260507232004 16 125 11.3 22.5 0.00 0.03 0.03 42 1009.5
20260507231500 17 141 20.9 30.6 0.00 0.03 0.03 39 1009.4
20260507230957 17 120 17.7 25.7 0.00 0.03 0.03 40 1008.9
20260507230454 17 122 14.5 20.9 0.00 0.03 0.03 40 1008.7
20260507225949 17 107 22.5 30.6 0.00 0.03 0.03 40 1008.9
20260507225446 17 127 17.7 27.4 0.00 0.03 0.03 38 1008.8
20260507224942 17 133 19.3 20.9 0.00 0.03 0.03 40 1008.9
20260507224438 18 148 20.9 24.1 0.00 0.03 0.03 40 1008.7
20260507223935 18 133 20.9 24.1 0.00 0.03 0.03 41 1008.5
20260507223431 18 109 12.9 22.5 0.00 0.03 0.03 41 1008.5
20260507222928 18 118 16.1 22.5 0.00 0.03 0.03 42 1008.6
20260507222425 18 134 24.1 29.0 0.00 0.03 0.03 39 1008.3
20260507221922 18 115 20.9 30.6 0.00 0.03 0.03 38 1008.3
20260507221418 18 151 12.9 22.5 0.00 0.03 0.03 37 1008.0
20260507220914 18 141 16.1 24.1 0.00 0.03 0.03 40 1008.2
20260507220412 18 122 19.3 30.6 0.00 0.03 0.03 40 1008.0
20260507215908 18 132 19.3 29.0 0.00 0.03 0.03 40 1008.0
20260507215405 18 103 12.9 33.8 0.00 0.03 0.03 42 1007.9
20260507214902 18 73 27.4 29.0 0.00 0.03 0.03 45 1007.4
20260507214400 18 55 6.4 12.9 0.00 0.03 0.03 61 1007.5
20260507213855 18 88 8.0 14.5 0.00 0.03 0.03 66 1007.7
20260507213352 17 103 6.4 12.9 0.00 0.03 0.03 67 1007.6
20260507212849 17 52 11.3 17.7 0.00 0.03 0.03 68 1007.6
20260507212345 16 69 6.4 11.3 0.00 0.03 0.03 69 1007.6
20260507211842 17 61 16.1 19.3 0.00 0.03 0.03 65 1007.4
20260507211339 18 78 11.3 17.7 0.00 0.03 0.03 64 1007.5
20260507210835 18 48 9.7 14.5 0.00 0.03 0.03 63 1007.4
20260507210332 18 58 11.3 16.1 0.00 0.03 0.03 64 1007.7
20260507205829 18 65 12.9 16.1 0.00 0.03 0.03 67 1007.6
20260507205326 18 73 12.9 20.9 0.00 0.03 0.03 67 1007.7
20260507204822 17 43 12.9 19.3 0.00 0.03 0.03 65 1007.5
20260507204319 18 47 14.5 17.7 0.00 0.03 0.03 66 1007.7
20260507203817 18 70 14.5 19.3 0.00 0.03 0.03 65 1007.7
20260507203315 18 111 12.9 22.5 0.00 0.03 0.03 66 1007.7
20260507202811 18 76 11.3 22.5 0.00 0.03 0.03 66 1007.8
20260507202307 18 47 16.1 17.7 0.00 0.03 0.03 64 1007.8
20260507201802 18 47 11.3 11.3 0.00 0.03 0.03 66 1007.8
20260507201258 18 75 11.3 12.9 0.00 0.03 0.03 65 1007.9
20260507200755 18 78 16.1 22.5 0.00 0.03 0.03 65 1007.8
20260507200251 17 63 6.4 9.7 0.00 0.03 0.03 68 1007.8
20260507195747 16 63 6.4 16.1 0.00 0.03 0.03 67 1008.3
20260507195245 17 91 8.0 14.5 0.00 0.03 0.03 67 1008.3
20260507194742 17 117 8.0 9.7 0.00 0.03 0.03 68 1008.4
20260507194238 17 110 4.8 6.4 0.00 0.03 0.03 66 1008.1
20260507193734 17 54 6.4 6.4 0.00 0.03 0.03 67 1008.4
20260507193231 18 114 9.7 17.7 0.00 0.03 0.03 66 1008.4
20260507192727 18 69 11.3 14.5 0.00 0.03 0.03 72 1008.5
20260507192224 17 75 11.3 24.1 0.00 0.03 0.03 71 1008.5
20260507191720 17 98 4.8 19.3 0.00 0.03 0.03 67 1008.6
20260507191218 17 81 9.7 14.5 0.00 0.03 0.03 67 1008.7
20260507190714 18 88 12.9 24.1 0.00 0.03 0.03 67 1008.7
20260507190213 18 151 6.4 16.1 0.00 0.03 0.03 68 1008.7
20260507185711 18 138 3.2 8.0 0.00 0.03 0.03 67 1008.6
20260507185208 17 95 16.1 17.7 0.00 0.03 0.03 68 1008.9
20260507184705 16 135 6.4 8.0 0.00 0.03 0.03 74 1008.9
20260507184203 16 110 9.7 17.7 0.00 0.03 0.03 74 1009.3
20260507183659 15 135 3.2 8.0 0.00 0.03 0.03 73 1009.1
20260507183156 15 104 6.4 11.3 0.00 0.03 0.03 71 1009.1
20260507182654 15 41 4.8 8.0 0.00 0.03 0.03 72 1008.8
20260507182149 15 59 3.2 6.4 0.00 0.03 0.03 73 1009.1
20260507181645 15 98 3.2 9.7 0.00 0.03 0.03 74 1009.4
20260507181142 15 82 4.8 12.9 0.00 0.03 0.03 74 1009.4
20260507180638 16 120 12.9 17.7 0.00 0.03 0.03 74 1009.4
20260507180136 16 130 6.4 6.4 0.00 0.03 0.03 74 1009.5
20260507175631 15 137 4.8 8.0 0.00 0.03 0.03 75 1009.6
20260507175129 15 95 11.3 14.5 0.00 0.03 0.03 74 1009.4
20260507174625 15 114 9.7 9.7 0.00 0.03 0.03 76 1009.5
20260507174124 15 187 3.2 4.8 0.00 0.03 0.03 73 1009.7
20260507173621 15 103 8.0 9.7 0.00 0.03 0.03 75 1009.7
20260507173118 15 168 8.0 9.7 0.00 0.03 0.03 76 1009.9
20260507172613 14 121 0.0 9.7 0.00 0.03 0.03 75 1009.8
20260507172111 15 88 6.4 9.7 0.00 0.03 0.03 77 1010.0
20260507171606 14 47 4.8 4.8 0.00 0.03 0.03 78 1009.9
20260507171103 13 108 4.8 4.8 0.00 0.03 0.03 78 1010.3
20260507170600 14 51 6.4 9.7 0.00 0.03 0.03 78 1010.2
20260507170057 14 117 0.0 1.6 0.00 0.03 0.03 79 1010.3
20260507165553 13 76 3.2 4.8 0.00 0.03 0.03 81 1010.5
20260507165049 13 62 0.0 3.2 0.00 0.03 0.03 80 1010.5
20260507164546 13 71 6.4 9.7 0.00 0.03 0.03 80 1010.8
20260507164043 13 140 3.2 6.4 0.00 0.03 0.03 81 1010.7
20260507163540 13 77 1.6 6.4 0.00 0.03 0.03 82 1010.8
20260507163038 12 271 3.2 3.2 0.00 0.03 0.03 84 1010.6
20260507162532 12 113 0.0 3.2 0.00 0.03 0.03 82 1010.8
20260507162029 12 227 4.8 6.4 0.00 0.03 0.03 82 1010.8
20260507161526 12 228 0.0 6.4 0.00 0.03 0.03 84 1011.0
20260507161023 12 119 0.0 3.2 0.00 0.03 0.03 85 1011.2
20260507160518 11 204 3.2 8.0 0.00 0.03 0.03 86 1011.1
20260507160015 11 275 3.2 8.0 0.00 0.03 0.03 85 1011.2
20260507155510 11 238 4.8 8.0 0.05 0.03 0.03 87 1011.1
20260507155008 11 213 4.8 11.3 0.05 0.03 0.03 86 1011.1
20260507154504 11 252 6.4 9.7 0.00 0.03 0.03 86 1011.2
20260507154001 11 276 3.2 4.8 0.00 0.03 0.03 85 1011.6
20260507153458 11 262 3.2 9.7 0.00 0.03 0.03 85 1011.2
20260507152954 11 259 6.4 6.4 0.00 0.03 0.03 85 1011.2
20260507152450 11 250 6.4 6.4 0.00 0.03 0.03 86 1011.6
20260507151947 11 299 1.6 8.0 0.00 0.03 0.03 87 1011.5
20260507151443 11 330 1.6 9.7 0.00 0.03 0.03 86 1011.5
20260507150940 11 231 3.2 4.8 0.00 0.03 0.03 86 1011.6
20260507150437 11 233 3.2 6.4 0.00 0.03 0.03 87 1011.6
20260507145933 11 246 4.8 4.8 0.00 0.03 0.03 87 1011.4
20260507145429 11 233 6.4 6.4 0.05 0.03 0.03 88 1011.4
20260507144926 11 194 1.6 4.8 0.05 0.03 0.03 87 1011.5
20260507144423 11 231 3.2 3.2 0.00 0.00 0.00 87 1011.4
20260507143920 11 212 3.2 4.8 0.00 0.00 0.00 86 1011.6
20260507143418 11 255 3.2 4.8 0.00 0.00 0.00 85 1011.4
20260507142914 11 228 3.2 6.4 0.00 0.00 0.00 86 1011.1
20260507142410 11 273 0.0 4.8 0.00 0.00 0.00 86 1011.2
20260507141907 11 244 1.6 4.8 0.00 0.00 0.00 86 1011.6
20260507141403 11 239 1.6 3.2 0.00 0.00 0.00 86 1011.5
20260507140900 11 176 1.6 3.2 0.00 0.00 0.00 86 1011.7
20260507140357 11 218 0.0 3.2 0.00 0.00 0.00 86 1011.7
20260507135855 11 17 1.6 4.8 0.00 0.00 0.00 86 1011.9
20260507135351 11 224 0.0 6.4 0.00 0.00 0.00 86 1011.8
20260507134849 11 257 0.0 9.7 0.00 0.00 0.00 86 1011.8
20260507134344 11 253 4.8 9.7 0.00 0.00 0.00 86 1011.8
20260507133841 11 274 1.6 8.0 0.00 0.00 0.00 86 1011.8
20260507133336 11 242 8.0 9.7 0.00 0.00 0.00 86 1011.8
20260507132835 11 242 9.7 9.7 0.00 0.00 0.00 86 1011.7
20260507132331 11 252 4.8 9.7 0.00 0.00 0.00 86 1011.8
20260507131828 11 258 4.8 9.7 0.00 0.00 0.00 86 1012.0
20260507131325 11 274 4.8 12.9 0.00 0.00 0.00 86 1011.5
20260507130823 11 278 9.7 14.5 0.00 0.00 0.00 87 1011.7
20260507130320 11 266 4.8 11.3 0.00 0.00 0.00 87 1011.7
20260507125819 11 311 3.2 14.5 0.00 0.00 0.00 87 1011.8
20260507125316 11 248 11.3 14.5 0.00 0.00 0.00 87 1011.6
20260507124813 11 253 4.8 17.7 0.00 0.00 0.00 87 1011.6
20260507124309 11 255 6.4 17.7 0.00 0.00 0.00 87 1011.6
20260507123808 11 269 11.3 11.3 0.00 0.00 0.00 87 1011.8
20260507123304 11 255 8.0 9.7 0.00 0.00 0.00 87 1011.7
20260507122800 11 227 8.0 9.7 0.00 0.00 0.00 88 1011.8
20260507122255 11 264 8.0 14.5 0.00 0.00 0.00 88 1011.5
20260507121751 11 248 9.7 16.1 0.00 0.00 0.00 88 1011.6
20260507121247 11 236 4.8 14.5 0.00 0.00 0.00 88 1011.6
20260507120743 11 290 4.8 9.7 0.00 0.00 0.00 89 1011.7
20260507120241 11 255 4.8 8.0 0.00 0.00 0.00 89 1011.6
20260507115737 11 249 3.2 8.0 0.00 0.00 0.00 89 1011.7
20260507115233 11 287 3.2 8.0 0.00 0.00 0.00 89 1011.6
20260507114728 11 267 6.4 9.7 0.00 0.00 0.00 90 1011.5
20260507114226 11 264 9.7 9.7 0.00 0.00 0.00 90 1011.4
20260507113723 11 242 9.7 11.3 0.00 0.00 0.00 90 1011.5
20260507113220 11 251 8.0 12.9 0.00 0.00 0.00 90 1011.4
20260507112718 11 283 4.8 14.5 0.00 0.00 0.00 90 1011.5
20260507112210 11 244 11.3 17.7 0.00 0.00 0.00 90 1011.4
20260507111707 11 252 6.4 11.3 0.00 0.00 0.00 90 1011.7
20260507111204 11 295 6.4 9.7 0.00 0.00 0.00 91 1011.0
20260507110659 11 281 1.6 14.5 0.00 0.00 0.00 91 1011.5
20260507110156 11 27 1.6 9.7 0.00 0.00 0.00 91 1011.1
20260507105653 11 289 8.0 11.3 0.00 0.00 0.00 91 1010.9
20260507105149 11 257 9.7 16.1 0.00 0.00 0.00 91 1010.8
20260507104647 11 266 12.9 17.7 0.00 0.00 0.00 92 1010.9
20260507104143 11 269 4.8 14.5 0.00 0.00 0.00 93 1010.7
20260507103639 12 266 8.0 8.0 0.00 0.00 0.00 93 1010.5
20260507103136 12 253 3.2 9.7 0.00 0.00 0.00 94 1010.4
20260507102632 12 316 3.2 4.8 0.00 0.00 0.00 95 1010.4
20260507102128 12 53 3.2 4.8 0.00 0.00 0.00 95 1010.6
20260507101625 12 258 6.4 8.0 0.00 0.00 0.00 95 1010.6
20260507101120 12 309 3.2 6.4 0.00 0.00 0.00 96 1010.5
20260507100618 12 279 3.2 6.4 0.00 0.00 0.00 96 1010.4
20260507100116 12 258 4.8 6.4 0.00 0.00 0.00 96 1010.5
20260507095614 12 256 1.6 3.2 0.00 0.00 0.00 96 1010.6
20260507095110 12 60 0.0 3.2 0.00 0.00 0.00 96 1010.4
20260507094606 12 61 4.8 4.8 0.00 0.00 0.00 96 1010.4
20260507094103 12 12 1.6 3.2 0.00 0.00 0.00 96 1010.2
20260507093601 12 60 3.2 3.2 0.00 0.00 0.00 96 1010.7
20260507093059 12 77 1.6 3.2 0.00 0.00 0.00 96 1010.5
20260507092555 12 97 3.2 6.4 0.00 0.00 0.00 96 1010.3
20260507092051 12 128 4.8 9.7 0.00 0.00 0.00 96 1010.6
20260507091548 12 101 3.2 3.2 0.00 0.00 0.00 96 1010.4
20260507091039 12 103 1.6 3.2 0.00 0.00 0.00 96 1010.1
20260507090535 12 95 0.0 3.2 0.00 0.00 0.00 96 1010.4
20260507090032 12 125 3.2 4.8 0.00 0.00 0.00 95 1010.5
20260507085529 12 104 3.2 3.2 0.00 0.00 0.00 95 1010.7
20260507085026 12 127 0.0 3.2 0.00 0.00 0.00 95 1010.6
20260507084522 12 114 0.0 6.4 0.00 0.00 0.00 95 1010.7
20260507084019 12 42 6.4 8.0 0.00 0.00 0.00 95 1010.6
20260507083516 12 67 3.2 4.8 0.00 0.00 0.00 94 1010.3
20260507083013 12 88 4.8 6.4 0.00 0.00 0.00 94 1010.2
20260507082509 12 89 4.8 4.8 0.00 0.00 0.00 94 1010.1
20260507082005 13 50 0.0 0.0 0.00 0.00 0.00 94 1010.0
20260507081502 13 53 3.2 3.2 0.00 0.00 0.00 93 1009.9
20260507080958 13 75 3.2 3.2 0.00 0.00 0.00 93 1010.0
20260507080454 13 123 3.2 3.2 0.00 0.00 0.00 93 1010.1
20260507075950 13 59 0.0 3.2 0.00 0.00 0.00 93 1010.2
20260507075447 13 77 0.0 3.2 0.00 0.00 0.00 93 1010.3
20260507074943 13 46 4.8 4.8 0.00 0.00 0.00 93 1010.2
20260507074440 13 39 4.8 6.4 0.00 0.00 0.00 92 1010.3
20260507073938 13 65 1.6 1.6 0.00 0.00 0.00 92 1010.3
20260507073434 13 63 1.6 3.2 0.00 0.00 0.00 92 1010.2
20260507072931 14 76 4.8 4.8 0.00 0.00 0.00 91 1010.0
20260507072428 14 95 3.2 6.4 0.00 0.00 0.00 91 1010.4
20260507071926 14 94 6.4 8.0 0.00 0.00 0.00 91 1010.2
20260507071422 14 68 4.8 6.4 0.00 0.00 0.00 92 1010.4
20260507070918 14 84 4.8 6.4 0.00 0.00 0.00 92 1010.1
20260507070416 14 88 6.4 8.0 0.00 0.00 0.00 91 1010.3
20260507065912 14 81 4.8 6.4 0.00 0.00 0.00 91 1009.9
20260507065409 14 108 3.2 4.8 0.00 0.00 0.00 90 1009.6
20260507064906 15 99 1.6 3.2 0.00 0.00 0.00 90 1010.1
20260507064405 15 22 3.2 6.4 0.00 0.00 0.00 90 1009.8
20260507063902 15 71 4.8 4.8 0.00 0.00 0.00 89 1010.1
20260507063359 15 36 4.8 8.0 0.00 0.00 0.00 88 1010.0
20260507062856 15 76 4.8 6.4 0.00 0.00 0.00 87 1009.8
20260507062353 15 140 6.4 8.0 0.00 0.00 0.00 86 1010.0
20260507061851 15 144 11.3 12.9 0.00 0.00 0.00 85 1009.8
20260507061348 15 94 17.7 17.7 0.00 0.00 0.00 87 1010.1
20260507060847 15 93 9.7 20.9 0.00 0.00 0.00 89 1010.2
20260507060343 15 99 12.9 20.9 0.00 0.00 0.00 91 1010.1
20260507055841 15 80 9.7 12.9 0.00 0.00 0.00 91 1010.0
20260507055340 15 89 9.7 14.5 0.00 0.00 0.00 91 1010.2
20260507054838 15 102 8.0 8.0 0.00 0.00 0.00 91 1010.5
20260507054334 15 81 11.3 16.1 0.00 0.00 0.00 92 1010.6
20260507053831 15 67 8.0 14.5 0.00 0.00 0.00 93 1010.6
20260507053329 15 88 8.0 9.7 0.00 0.00 0.00 94 1010.6
20260507052827 15 96 9.7 14.5 0.00 0.00 0.00 95 1010.7
20260507052324 15 89 8.0 9.7 0.00 0.00 0.00 95 1011.0
20260507051822 15 101 9.7 9.7 0.00 0.00 0.00 95 1010.8
20260507051319 15 67 6.4 6.4 0.00 0.00 0.00 95 1010.9
20260507050816 15 80 8.0 8.0 0.00 0.00 0.00 94 1010.6
20260507050312 15 74 4.8 6.4 0.00 0.00 0.00 94 1010.5
20260507045809 15 66 4.8 6.4 0.00 0.00 0.00 94 1010.3
20260507045306 15 87 6.4 8.0 0.00 0.00 0.00 93 1010.2
20260507044802 15 88 6.4 6.4 0.00 0.00 0.00 93 1009.9
20260507044259 15 91 3.2 6.4 0.00 0.00 0.00 93 1010.0
20260507043755 15 124 8.0 9.7 0.05 0.00 0.00 92 1010.0
20260507043252 15 155 6.4 9.7 0.05 0.00 0.00 91 1009.3
20260507042748 15 89 0.0 4.8 0.00 0.00 0.00 90 1009.4
20260507042243 16 114 3.2 6.4 0.00 0.00 0.00 90 1009.1
20260507041741 16 55 3.2 4.8 0.00 0.00 0.00 89 1009.2
20260507041237 16 57 6.4 9.7 0.00 0.00 0.00 89 1010.0
20260507040735 16 52 9.7 12.9 0.00 0.00 0.00 90 1009.9
20260507040230 16 36 6.4 8.0 0.00 0.00 0.00 91 1010.3
20260507035727 16 63 6.4 11.3 0.00 0.18 0.18 91 1010.7
20260507035222 16 97 11.3 12.9 0.05 0.18 0.18 91 1010.6
20260507034720 16 75 6.4 8.0 0.18 0.18 0.18 91 1010.1